Location: Baili�vre
(50.0696°N, 4.2409°E)
Time: 07:55:11
(UTC+00:00)

Cosmos 1500 Rocket - Pass Details

Date: 08 August 2020
Orbit: 604 x 630 km, 82.5° (Epoch: 26 September)

Event Time Altitude Azimuth Distance (km) Brightness Sun altitude
Rises 20:08:54 0° 201° (SSW) 2,847 6.8 -8.4°
Reaches altitude 10° 20:11:08 10° 206° (SSW) 1,949 6.0 -8.7°
Maximum altitude 20:15:21 53° 284° (WNW) 752 4.4 -9.2°
Drops below altitude 10° 20:19:37 10° 2° (N) 1,969 6.7 -9.7°
Sets 20:21:54 0° 7° (N) 2,881 7.5 -10.0°
